Regional Weather Roundup
Issued by NWS

Home | Current Version | Previous Version | Graphics & Text | Print | Product List | Glossary On
Versions: 1 2 3 4 5 6 7 8 9 10 11 12 13 14 15 16 17 18 19 20 21 22 23 24 25 26 27 28 29 30 31 32 33 34 35 36 37 38 39 40 41 42 43 44 45 46 47 48 49 50
761
ASUS43 KLOT 222208
RWRIL

ILLINOIS REGIONAL WEATHER ROUNDUP
NATIONAL WEATHER SERVICE CHICAGO/ROMEOVILLE IL
400 PM CST WED NOV 22 2017

NOTE: "FAIR" INDICATES FEW OR NO CLOUDS BELOW 12,000 FEET WITH NO
SIGNIFICANT WEATHER AND/OR OBSTRUCTIONS TO VISIBILITY.

* THESE STATIONS ARE NOT UNDER NWS QUALITY CONTROL. THEY ALSO MAY NOT
  REPORT WEATHER SUCH AS PRECIPITATION OR FOG.

ILZ001-002-007-009-015-016-024-222300-
NORTHWEST ILLINOIS

CITY           SKY/WX    TMP DP  RH WIND       PRES   REMARKS
MOLINE         NOT AVBL
STERLING*        N/A     32  17  54 MISG        N/A
SAVANNA*       CLOUDY    32  16  50 SW7       30.26S WCI  26
$$

ILZ003-004-008-010-011-017-018-222300-
NORTH CENTRAL ILLINOIS

CITY           SKY/WX    TMP DP  RH WIND       PRES   REMARKS
ROCKFORD       CLOUDY    32  15  49 SW7       30.26F WCI  26
FREEPORT*      PTCLDY    30  15  54 SW8       30.26S WCI  23
ROCHELLE*      MOCLDY    30  19  64 SW6       30.26F WCI  24
DE KALB*       CLOUDY    30  17  58 SW6       30.25F WCI  24
PERU*          MOCLDY    33  15  49 SW3       30.27F
$$

ILZ005-006-012>014-019>023-222300-
NORTHEAST ILLINOIS

CITY           SKY/WX    TMP DP  RH WIND       PRES   REMARKS
CHICAGO-OHARE  CLOUDY    33  15  47 W6        30.25F WCI  28
CHICAGO-MIDWAY MOCLDY    33  16  49 SW8       30.26F WCI  26
AURORA         CLOUDY    31  18  58 SW6       30.26F WCI  25
LANSING*       CLEAR     32  18  55 W3        30.28S
JOLIET*        CLOUDY    33  18  52 SW5       30.28F WCI  29
WAUKEGAN       PTCLDY    32  15  49 SW5       30.24F WCI  27
DUPAGE AIRPORT CLOUDY    31  17  56 SW6       30.25F WCI  25
KANKAKEE*      CLEAR     32  17  52 W5        30.29S WCI  27
WHEELING       PTCLDY    34  15  46 SW6       30.26F WCI  29
MORRIS*        CLOUDY    32  19  58 W5        30.27S WCI  27
ROMEOVILLE*    CLOUDY    31  20  62 W5        30.27F WCI  27
NORTHERLY ISL    N/A     34  14  44 W5          N/A  WCI  30
$$

LMZ740>746-222300-
SOUTHERN LAKE MICHIGAN

STATION/POSITION SKY/WX   TEMP    WIND        PRES    VSBY  WAVE
                          AIR SEA DIR/SP/G                  HT/PER
                          (F)     (DEG/KT/KT) (MB)    (MI)  (FT/S)
SOUTHERN BUOY              31 47  280/  8/ 10 1026.0          2/ 6
HARRISON CRIB              35     270/  7/  8   N/A
BURNHAM HARBOR             34     240/  2/  9   N/A
CALUMET HARBOR             34     240/  4/  8 1024.3R
BURNS HARBOR               35     280/  5/  8 1025.4S
MICHIGAN CITY              33     260/  7/  9   N/A
$$

ILZ025>027-034>036-040-047-049-050-058-095>099-222300-
WEST-CENTRAL ILLINOIS

CITY           SKY/WX    TMP DP  RH WIND       PRES   REMARKS
QUINCY         PTCLDY    36  15  42 SW3       30.28S
GALESBURG*     CLOUDY    34  19  54 SW6       30.28S WCI  29
MACOMB*        MOCLDY    35  18  49 SW5       30.31R WCI  31
JACKSONVILLE*  CLEAR     36  16  44 SW5       30.30S WCI  32
PITTSFIELD*    CLEAR     38  16  40 CALM      30.30R
$$

ILZ028>032-037-038-041>044-048-051>054-059>061-222300-
CENTRAL ILLINOIS

CITY           SKY/WX    TMP DP  RH WIND       PRES   REMARKS
PONTIAC        CLOUDY    33  18  53 W5        30.30R WCI  29
BLOOMINGTON    CLEAR     32  18  56 SW5       30.28F WCI  27
DECATUR        CLEAR     35  17  47 NE5       30.30F WCI  31
PEORIA         MOCLDY    35  15  44 W5        30.29R WCI  31
LACON*         CLOUDY    33  17  50 S3        30.27F
LINCOLN*       CLEAR     35  18  49 CALM      30.30S
SPRINGFIELD    CLEAR     36  17  46 S3        30.30F
TAYLORVILLE    CLEAR     35  19  52 SW3       30.31S
$$

ILZ033-039-045-046-055>057-062-063-222300-
EAST-CENTRAL ILLINOIS

CITY           SKY/WX    TMP DP  RH WIND       PRES   REMARKS
CHAMPAIGN      CLEAR     35  18  49 W3        30.29S
DANVILLE*      CLEAR     34  19  54 NW3       30.27R
RANTOUL*       CLEAR     36  20  52 CALM      30.28F
MATTOON        CLEAR     34  18  52 N7        30.29S WCI  28
PARIS*         CLEAR     35  23  61 NW3       30.31R
$$

ILZ079-100>102-222300-
SOUTHWEST ILLINOIS

CITY           SKY/WX    TMP DP  RH WIND       PRES   REMARKS
ALTON          CLEAR     37  19  48 NW6       30.31F WCI  33
BELLEVILLE     CLEAR     39  18  42 NW3       30.30S
CAHOKIA*       CLEAR     39  16  39 N6        30.32R WCI  35
SPARTA*        CLEAR     37  22  54 N6        30.32S WCI  32
$$

ILZ064>066-069>071-074>076-080>082-084>086-088>090-092>094-222300-
SOUTH-CENTRAL ILLINOIS

CITY           SKY/WX    TMP DP  RH WIND       PRES   REMARKS
CARBONDALE     CLEAR     40  20  44 N6        30.30S
CAIRO*         CLEAR     42  23  46 N8        30.29R
EFFINGHAM*     CLEAR     37  20  51 N3        30.32R
MARION         CLEAR     39  21  48 N12       30.31R WCI  32
MT. VERNON     CLEAR     38  19  46 N5        30.31R WCI  34
CENTRALIA*     CLEAR     38  21  50 N3        30.30S
SALEM*         CLEAR     39  19  43 N5        30.31S
METROPOLIS*    CLEAR     42  21  42 N6        30.29R
$$

ILZ067-068-072-073-078-083-087-091-222300-
SOUTHEAST ILLINOIS

CITY           SKY/WX    TMP DP  RH WIND       PRES   REMARKS
LAWRENCEVILLE  CLEAR     39  21  48 N7        30.30S WCI  34
FLORA*         CLEAR     38  20  47 N6        30.31R WCI  34
FAIRFIELD*     CLEAR     38  19  46 CALM      30.29S
HARRISBURG*    CLEAR     39  22  51 NE8       30.31R WCI  33
ROBINSON*      CLEAR     36  20  52 CALM      30.31S
CARMI*         CLEAR     38  21  50 N7        30.30R WCI  33
$$

ABBREVIATIONS USED IN REMARKS
   TC - TEMPERATURE IN CELSIUS
  WCI - WIND CHILL INDEX
   HX - HEAT INDEX
  VSB - VISIBILITY
$$





USA.gov is the U.S. government's official web portal to all federal, state and local government web resources and services.